Location: Bothwell
(42.3833°S, 147.0000°E)
Time: 04:32:42
(UTC+11:00)

SEEDS - Pass Details

Date: 02 October 2022
Orbit: 577 x 595 km, 97.6° (Epoch: 29 November)

Event Time Altitude Azimuth Distance (km) Brightness Sun altitude
Exits shadow 04:21:44 66° 122° (ESE) 646 ? -25.7°
Drops below altitude 10° 04:25:43 10° 187° (S) 1,932 ? -25.1°
Sets 04:27:54 0° 189° (S) 2,842 ? -24.7°
